Location: Recife
(8.0585°S, 34.8848°W)
Time: 09:59:40
(UTC-03:00)

Explorer 7 - Pass Details

Date: 22 April 2026
Orbit: 427 x 536 km, 50.2° (Epoch: 14 May)

Event Time Altitude Azimuth Distance (km) Brightness Sun altitude
Rises 08:49:04 0° 192° (SSW) 2,470 9.9 47.7°
Reaches altitude 10° 08:51:51 10° 168° (SSE) 1,616 9.2 48.3°
Maximum altitude 08:54:08 16° 129° (SE) 1,321 9.2 48.8°
Drops below altitude 10° 08:56:27 10° 91° (E) 1,651 10.0 49.3°
Sets 08:59:19 0° 68° (ENE) 2,554 10.9 50.0°
